Погода в Хараре

Зимбабве     17°49′45″S   31°03′07″E
темп.,
°C
ветер,
м/с
пор.,
м/с
влажн.,
%
обл.,
%
осадки,
мм/ч
давл.,
гПа
погр.,
м
15 апреля, чт
чт1523:00+17вюв26560 0.0 1019281
02:00+15в22640 0.0 101966
05:00+13юв24790 0.0 1018119
08:00+17юв35510 0.0 1020513
11:00+24вюв35220 0.0 10171802
14:00+26в44160 0.0 10132488
17:00+23всв35290 0.0 10131122
20:00+18вюв35382 0.0 1018167
16 апреля, пт
пт1623:00+17в3747100 0.0 1018194
02:00+15вюв26456 0.0 1018181
05:00+14вюв274355 0.0 1018187
08:00+18вюв51233100 0.0 1018594
11:00+23в5919100 0.0 10181565
14:00+26в691782 0.0 10142476
17:00+23в58255 0.0 10161634
20:00+18в410400 0.0 1019422
17 апреля, сб
сб1723:00+16вюв513570 0.0 1020619
02:00+14юв514791 0.0 1021608
05:00+13юв51085100 0.0 1022739
08:00+13юв61085100 0.1 1024582
11:00+15юв576886 0.0 1024851
14:00+20юв454821 0.0 10201414
17:00+18ююв55505 0.0 1020786
20:00+15юв385924 0.0 1023347
18 апреля, вс
вс1823:00+12юв37635 0.0 1024267
02:00+10юв377016 0.0 1023215
05:00+9юв37755 0.0 1024202
08:00+13вюв47605 0.0 1025454
11:00+21вюв333153 0.0 10221414
14:00+24всв22236 0.0 10182161
17:00+21св4435100 0.0 1018617
20:00+16в3549100 0.0 1022199
19 апреля, пн
пн1923:00+14в245698 0.0 1022181
02:00+11св12755 0.0 102291
05:00+11ю12750 0.0 102255
08:00+15юв235555 0.0 1022421
11:00+22юв23324 0.0 10201638
14:00+25вюв222369 0.0 10162333
17:00+22св45311 0.0 1016651
20:00+16всв35530 0.0 1020249